Hourly Data Report for May 11, 2012

All times are specified in Local Standard Time (LST). Add 1 hour to adjust for Daylight Saving Time where and when it is observed.

ST. JOHN'S INTL A
NEWFOUNDLAND

47°37'07.000" N
52°45'09.000" W
140.50 m
8403505
71801
YYT

Download Data

Hourly Data (May 2012)
Hourly Data Report for May 11, 2012
Temp Definition
°C
Dew Point Temp Definition
°C
Rel Hum Definition
%
Wind Dir Definition
10's deg

Wind Spd Definition
km/h
Visibility Definition
km
Stn Press Definition
kPa
Hmdx Definition


Wind Chill Definition


Weather Definition


TIME
00:30 8.7 8.0 95 19 37 10.0 100.41     LegendNANA
01:30 8.5 7.6 94 19 42 10.0 100.39     LegendNANA
02:30 8.8 8.5 98 19 28 10.0 100.38     Cloudy
03:30 8.4 8.4 100 18 36 4.8 100.35     Drizzle,Fog
04:30 7.8 7.5 98 18 34 10.0 100.32     LegendNANA
05:30 6.4 6.3 99 17 30 10.0 100.31     Mostly Cloudy
06:30 8.4 8.6 101 18 28 0.4 100.31     Fog
07:30 10.6 10.0 96 20 26 10.0 100.34     LegendNANA
08:30 12.1 10.4 89 18 38 10.0 100.30     Mostly Cloudy
09:30 16.5 12.9 79 20 36 10.0 100.28     LegendNANA
10:30 19.0 14.1 73 23 39 10.0 100.30     LegendNANA
11:30 20.5 14.5 68 22 43 10.0 100.27     Cloudy
12:30 19.1 14.4 74 22 28 10.0 100.29     LegendNANA
13:30 20.1 15.0 72 21 42 10.0 100.28     LegendNANA
14:30 18.7 14.8 78 22 45 10.0 100.32     Cloudy
15:30 18.2 14.9 81 22 33 10.0 100.35     LegendNANA
16:30 18.0 14.9 82 22 38 10.0 100.36     LegendNANA
17:30 17.2 14.5 84 21 36 10.0 100.38     Mostly Cloudy
18:30 16.4 14.3 87 21 34 10.0 100.45     LegendNANA
19:30 15.4 13.8 90 21 32 10.0 100.51     LegendNANA
20:30 14.9 14.3 96 20 36 10.0 100.56     Rain Showers
21:30 15.0 14.4 96 20 36 10.0 100.56     Rain Showers
22:30 14.6 14.1 97 20 37 10.0 100.57     LegendNANA
23:30 13.6 13.1 97 20 37 10.0 100.60     Rain Showers

Notes on Data Quality.

Legend

  • E = Estimated
  • M = Missing
  • NA = Not Available
Date modified: